GW4073 Weather Reports


Display with metric or nautical units.
time (UTC)temp
F
wind
direction
speed
MPH
gust
MPH
rain 1hr
in
rain 24hr
in
rain mn
in
humidity
%
barometer
mb
20260903005722 75 341 2.0 5.0 0.00 0.00 0.00 25 1012.7
20260903005217 76 316 3.0 4.0 0.00 0.00 0.00 25 1012.8
20260903004713 76 298 2.0 3.0 0.00 0.00 0.00 25 1012.9
20260903004209 77 308 2.0 4.0 0.00 0.00 0.00 23 1012.8
20260903003703 77 294 3.0 5.0 0.00 0.00 0.00 21 1012.8
20260903003159 78 277 3.0 6.0 0.00 0.00 0.00 22 1012.9
20260903002653 80 234 4.0 5.0 0.00 0.00 0.00 20 1012.9
20260903002148 80 153 5.0 8.0 0.00 0.00 0.00 21 1012.9
20260903001643 80 272 4.0 5.0 0.00 0.00 0.00 22 1013.0
20260903001142 80 286 2.0 4.0 0.00 0.00 0.00 22 1013.1
20260903000638 80 227 3.0 6.0 0.00 0.00 0.00 21 1013.1
20260903000132 81 256 3.0 4.0 0.00 0.00 0.00 21 1013.1
20260902235630 82 249 6.0 6.0 0.00 0.00 0.00 23 1013.1
20260902235126 82 281 0.0 4.0 0.00 0.00 0.00 21 1013.2
20260902234619 82 287 3.0 5.0 0.00 0.00 0.00 20 1013.0
20260902234118 82 291 2.0 4.0 0.00 0.00 0.00 22 1013.1
20260902233613 82 272 3.0 5.0 0.00 0.00 0.00 21 1013.4
20260902233108 82 249 5.0 6.0 0.00 0.00 0.00 22 1013.2
20260902232608 81 283 5.0 10.0 0.00 0.00 0.00 21 1013.2
20260902232101 82 292 3.0 8.0 0.00 0.00 0.00 21 1013.4
20260902231555 82 284 4.0 12.0 0.00 0.00 0.00 22 1013.1
20260902231050 83 193 2.0 3.0 0.00 0.00 0.00 21 1013.2
20260902230545 81 247 3.0 9.0 0.00 0.00 0.00 21 1013.1
20260902230044 82 226 3.0 12.0 0.00 0.00 0.00 22 1013.6
20260902225540 83 312 3.0 5.0 0.00 0.00 0.00 23 1013.4
20260902225039 82 244 4.0 6.0 0.00 0.00 0.00 21 1013.4
20260902224538 82 280 2.0 6.0 0.00 0.00 0.00 24 1013.2
20260902224034 82 245 6.0 11.0 0.00 0.00 0.00 20 1013.6
20260902223530 82 281 2.0 9.0 0.00 0.00 0.00 22 1013.5
20260902223029 82 171 3.0 8.0 0.00 0.00 0.00 23 1013.6
20260902222528 82 266 7.0 8.0 0.00 0.00 0.00 23 1013.6
20260902222026 83 286 3.0 6.0 0.00 0.00 0.00 24 1013.5
20260902221521 82 240 5.0 10.0 0.00 0.00 0.00 22 1013.7
20260902221017 82 343 2.0 9.0 0.00 0.00 0.00 21 1013.8
20260902220512 83 219 7.0 13.0 0.00 0.00 0.00 20 1013.8
20260902220006 84 274 6.0 8.0 0.00 0.00 0.00 24 1013.9
20260902215503 83 290 3.0 6.0 0.00 0.00 0.00 24 1013.9
20260902214958 82 241 6.0 13.0 0.00 0.00 0.00 21 1014.1
20260902214457 83 265 5.0 16.0 0.00 0.00 0.00 22 1013.9
20260902213955 83 256 2.0 8.0 0.00 0.00 0.00 24 1014.1
20260902213452 83 293 2.0 4.0 0.00 0.00 0.00 25 1013.9
20260902212951 82 279 3.0 6.0 0.00 0.00 0.00 25 1013.9
20260902212447 82 241 4.0 11.0 0.00 0.00 0.00 23 1014.3
20260902211943 82 262 2.0 5.0 0.00 0.00 0.00 28 1014.3
20260902211439 82 225 6.0 8.0 0.00 0.00 0.00 25 1014.7
20260902210933 82 268 4.0 10.0 0.00 0.00 0.00 26 1014.4
20260902210428 82 259 6.0 9.0 0.00 0.00 0.00 27 1014.5
20260902205926 82 278 5.0 9.0 0.00 0.00 0.00 27 1014.8
20260902205422 82 261 6.0 7.0 0.00 0.00 0.00 26 1014.4
20260902204918 81 221 4.0 10.0 0.00 0.00 0.00 26 1014.8
20260902204417 82 269 3.0 9.0 0.00 0.00 0.00 28 1014.9
20260902203913 82 281 2.0 10.0 0.00 0.00 0.00 27 1014.9
20260902203408 82 242 2.0 11.0 0.00 0.00 0.00 25 1014.5
20260902202907 82 303 4.0 6.0 0.00 0.00 0.00 27 1014.5
20260902202403 81 180 2.0 7.0 0.00 0.00 0.00 25 1015.0
20260902201900 81 290 2.0 12.0 0.00 0.00 0.00 27 1015.1
20260902201359 81 250 3.0 12.0 0.00 0.00 0.00 26 1015.1
20260902200854 82 254 3.0 6.0 0.00 0.00 0.00 29 1014.8
20260902200350 81 238 5.0 15.0 0.00 0.00 0.00 25 1015.1
20260902195844 80 158 3.0 9.0 0.00 0.00 0.00 28 1015.1
20260902195344 80 316 4.0 7.0 0.00 0.00 0.00 29 1015.1
20260902194839 81 279 6.0 6.0 0.00 0.00 0.00 31 1015.4
20260902194338 80 330 3.0 14.0 0.00 0.00 0.00 29 1015.6
20260902193834 81 278 6.0 12.0 0.00 0.00 0.00 30 1015.5
20260902193330 80 306 3.0 6.0 0.00 0.00 0.00 29 1015.6
20260902192829 80 285 3.0 11.0 0.00 0.00 0.00 28 1015.5
20260902192328 80 295 7.0 9.0 0.00 0.00 0.00 30 1015.2
20260902191827 80 263 5.0 11.0 0.00 0.00 0.00 31 1015.6
20260902191323 80 256 5.0 6.0 0.00 0.00 0.00 30 1015.5
20260902190818 79 210 5.0 11.0 0.00 0.00 0.00 32 1015.7
20260902190317 78 249 7.0 15.0 0.00 0.00 0.00 31 1015.8
20260902185814 79 196 4.0 6.0 0.00 0.00 0.00 31 1015.7
20260902185309 78 248 6.0 14.0 0.00 0.00 0.00 34 1015.9
20260902184805 79 281 3.0 6.0 0.00 0.00 0.00 36 1015.8
20260902184300 78 269 3.0 6.0 0.00 0.00 0.00 38 1015.8
20260902183755 77 301 4.0 17.0 0.00 0.00 0.00 35 1016.2
20260902183252 78 294 6.0 10.0 0.00 0.00 0.00 35 1016.1
20260902182748 78 246 3.0 14.0 0.00 0.00 0.00 36 1015.9
20260902182244 78 245 5.0 8.0 0.00 0.00 0.00 37 1015.7
20260902181740 78 185 5.0 9.0 0.00 0.00 0.00 38 1016.2
20260902181240 77 245 4.0 13.0 0.00 0.00 0.00 36 1016.1
20260902180734 77 279 4.0 7.0 0.00 0.00 0.00 39 1015.9
20260902180225 77 228 9.0 9.0 0.00 0.00 0.00 39 1016.1
20260902175724 76 235 9.0 14.0 0.00 0.00 0.00 38 1016.3
20260902175221 77 296 3.0 4.0 0.00 0.00 0.00 42 1016.5
20260902174716 76 296 3.0 5.0 0.00 0.00 0.00 44 1016.3
20260902174212 76 248 4.0 6.0 0.00 0.00 0.00 41 1016.4
20260902173708 75 246 5.0 9.0 0.00 0.00 0.00 45 1016.4
20260902173203 76 203 9.0 9.0 0.00 0.00 0.00 45 1016.2
20260902172702 71 277 4.0 6.0 0.00 0.00 0.00 54 1016.4
20260902172201 72 267 2.0 4.0 0.00 0.00 0.00 55 1016.5
20260902171656 73 273 2.0 5.0 0.00 0.00 0.00 54 1016.5
20260902171153 76 287 4.0 5.0 0.00 0.00 0.00 51 1016.4
20260902170648 74 264 3.0 5.0 0.00 0.00 0.00 52 1016.4
20260902170143 73 344 1.0 5.0 0.00 0.00 0.00 53 1016.5
20260902165639 72 264 5.0 5.0 0.00 0.00 0.00 53 1016.5
20260902165138 72 212 6.0 9.0 0.00 0.00 0.00 52 1016.6
20260902164633 71 296 5.0 6.0 0.00 0.00 0.00 54 1016.9
20260902164132 71 271 2.0 5.0 0.00 0.00 0.00 55 1016.6
20260902163627 71 223 3.0 10.0 0.00 0.00 0.00 57 1016.5
20260902163127 70 293 4.0 14.0 0.00 0.00 0.00 56 1016.4
20260902162625 71 278 4.0 5.0 0.00 0.00 0.00 58 1016.1
20260902162120 73 260 3.0 6.0 0.00 0.00 0.00 58 1016.4
20260902161616 75 291 3.0 4.0 0.00 0.00 0.00 58 1016.2
20260902161112 75 270 1.0 4.0 0.00 0.00 0.00 56 1016.5
20260902160608 74 252 2.0 7.0 0.00 0.00 0.00 56 1016.3
20260902160103 73 164 2.0 10.0 0.00 0.00 0.00 56 1016.4
20260902155600 73 193 2.0 5.0 0.00 0.00 0.00 56 1016.3
20260902155059 75 277 3.0 5.0 0.00 0.00 0.00 58 1016.2
20260902154555 73 190 4.0 9.0 0.00 0.00 0.00 57 1016.2
20260902154050 73 228 2.0 6.0 0.00 0.00 0.00 61 1016.2
20260902153548 73 264 3.0 6.0 0.00 0.00 0.00 61 1016.3
20260902153044 73 242 0.0 2.0 0.00 0.00 0.00 60 1016.3
20260902152541 71 162 2.0 3.0 0.00 0.00 0.00 62 1016.2
20260902152036 71 18 2.0 3.0 0.00 0.00 0.00 63 1016.3
20260902151531 69 316 1.0 4.0 0.00 0.00 0.00 64 1016.1
20260902151025 69 311 1.0 3.0 0.00 0.00 0.00 66 1016.4
20260902150520 68 12 1.0 3.0 0.00 0.00 0.00 66 1016.3
20260902150015 66 82 2.0 4.0 0.00 0.00 0.00 70 1016.3
20260902145510 65 60 4.0 4.0 0.00 0.00 0.00 71 1016.3
20260902145005 64 46 2.0 4.0 0.00 0.00 0.00 74 1016.4
20260902144502 64 113 3.0 3.0 0.00 0.00 0.00 74 1016.2
20260902143956 62 47 2.0 5.0 0.00 0.00 0.00 76 1016.2
20260902143451 63 52 1.0 4.0 0.00 0.00 0.00 76 1016.3
20260902142947 62 31 3.0 5.0 0.00 0.00 0.00 76 1016.2
20260902142442 62 38 3.0 4.0 0.00 0.00 0.00 76 1016.1
20260902141937 61 38 1.0 5.0 0.00 0.00 0.00 78 1016.2
20260902141432 60 45 3.0 4.0 0.00 0.00 0.00 79 1016.1
20260902140931 60 64 2.0 4.0 0.00 0.00 0.00 81 1016.1
20260902140427 59 11 4.0 4.0 0.00 0.00 0.00 83 1016.1
20260902135927 57 48 2.0 6.0 0.00 0.00 0.00 86 1016.1
20260902135423 57 51 3.0 5.0 0.00 0.00 0.00 87 1015.7
20260902134921 56 100 4.0 4.0 0.00 0.00 0.00 88 1015.6
20260902134418 56 111 2.0 3.0 0.00 0.00 0.00 89 1015.7
20260902133913 55 63 2.0 5.0 0.00 0.00 0.00 89 1015.6
20260902133412 55 260 1.0 2.0 0.00 0.00 0.00 90 1015.6
20260902132907 55 80 1.0 1.0 0.00 0.00 0.00 90 1015.7
20260902132402 55 130 0.0 2.0 0.00 0.00 0.00 90 1015.5
20260902131858 55 49 2.0 2.0 0.00 0.00 0.00 90 1015.4
20260902131355 55 304 0.0 2.0 0.00 0.00 0.00 89 1015.5
20260902130853 55 69 2.0 2.0 0.00 0.00 0.00 89 1015.4
20260902130350 56 305 0.0 2.0 0.00 0.00 0.00 88 1015.4
20260902125844 56 256 1.0 5.0 0.00 0.00 0.00 87 1015.4
20260902125341 57 352 2.0 3.0 0.00 0.00 0.00 86 1015.4
20260902124837 57 48 4.0 5.0 0.00 0.00 0.00 86 1015.2
20260902124332 57 61 3.0 4.0 0.00 0.00 0.00 86 1015.5
20260902123827 57 62 3.0 4.0 0.00 0.00 0.00 86 1015.0
20260902123323 56 68 2.0 3.0 0.00 0.00 0.00 86 1015.0
20260902122822 57 36 2.0 3.0 0.00 0.00 0.00 86 1015.2
20260902122318 57 89 0.0 2.0 0.00 0.00 0.00 85 1015.2
20260902121817 57 77 2.0 3.0 0.00 0.00 0.00 84 1015.2
20260902121313 57 45 3.0 3.0 0.00 0.00 0.00 85 1015.4
20260902120808 57 162 0.0 1.0 0.00 0.00 0.00 85 1015.4
20260902120305 57 36 0.0 1.0 0.00 0.00 0.00 84 1014.9
20260902115800 57 354 1.0 2.0 0.00 0.00 0.00 84 1014.9
20260902115256 57 8 2.0 3.0 0.00 0.00 0.00 83 1014.9
20260902114752 57 40 2.0 2.0 0.00 0.00 0.00 83 1014.8
20260902114248 57 44 2.0 5.0 0.00 0.00 0.00 83 1014.7
20260902113747 57 68 1.0 3.0 0.00 0.00 0.00 83 1015.0
20260902113243 57 57 2.0 3.0 0.00 0.00 0.00 82 1015.0
20260902112742 57 18 3.0 4.0 0.00 0.00 0.00 82 1015.0
20260902112239 57 71 2.0 4.0 0.00 0.00 0.00 82 1015.1
20260902111734 57 84 4.0 5.0 0.00 0.00 0.00 83 1015.2
20260902111231 57 55 4.0 7.0 0.00 0.00 0.00 82 1015.0
20260902110726 57 57 3.0 4.0 0.00 0.00 0.00 82 1015.0
20260902110222 57 62 4.0 5.0 0.00 0.00 0.00 82 1015.1
20260902105716 57 46 2.0 3.0 0.00 0.00 0.00 82 1015.0
20260902105211 57 47 4.0 6.0 0.00 0.00 0.00 82 1015.2
20260902104706 57 82 4.0 5.0 0.00 0.00 0.00 82 1014.9
20260902104202 57 86 2.0 5.0 0.00 0.00 0.00 81 1015.1
20260902103702 57 44 4.0 4.0 0.00 0.00 0.00 82 1015.0
20260902103157 57 63 3.0 5.0 0.00 0.00 0.00 81 1015.0
20260902102652 57 58 2.0 5.0 0.00 0.00 0.00 81 1015.0
20260902102149 57 93 4.0 4.0 0.00 0.00 0.00 81 1015.1
20260902101645 57 115 3.0 6.0 0.00 0.00 0.00 81 1014.9
20260902101144 57 103 3.0 6.0 0.00 0.00 0.00 81 1015.1
20260902100639 57 78 1.0 4.0 0.00 0.00 0.00 81 1015.0
20260902100134 57 44 5.0 5.0 0.00 0.00 0.00 81 1015.4
20260902095633 57 336 0.0 3.0 0.00 0.00 0.00 81 1015.1
20260902095132 57 40 3.0 4.0 0.00 0.00 0.00 81 1015.1
20260902094627 57 82 3.0 5.0 0.00 0.00 0.00 81 1015.4
20260902094118 57 81 3.0 5.0 0.00 0.00 0.00 81 1015.4
20260902093611 57 27 2.0 2.0 0.00 0.00 0.00 81 1015.4
20260902093106 57 101 2.0 4.0 0.00 0.00 0.00 80 1015.5
20260902092600 57 76 2.0 6.0 0.00 0.00 0.00 80 1015.4
20260902092056 57 103 4.0 4.0 0.00 0.00 0.00 80 1015.4
20260902091551 57 42 3.0 4.0 0.00 0.00 0.00 80 1015.2
20260902091047 57 54 4.0 6.0 0.00 0.00 0.00 80 1015.2
20260902090542 57 75 2.0 5.0 0.00 0.00 0.00 80 1015.4
20260902090041 57 38 0.0 1.0 0.00 0.00 0.00 80 1015.4
20260902085535 57 39 3.0 4.0 0.00 0.00 0.00 80 1015.4
20260902085032 56 73 1.0 2.0 0.00 0.00 0.00 83 1015.6
20260902084528 56 278 2.0 2.0 0.00 0.00 0.00 83 1015.6
20260902084023 57 321 0.0 3.0 0.00 0.00 0.00 80 1015.4
20260902083518 57 59 3.0 5.0 0.00 0.00 0.00 78 1015.2
20260902083012 57 40 2.0 3.0 0.00 0.00 0.00 78 1015.6
20260902082508 57 37 4.0 7.0 0.00 0.00 0.00 79 1015.4
20260902082004 57 64 3.0 9.0 0.00 0.00 0.00 79 1015.5
20260902081501 57 82 2.0 7.0 0.00 0.00 0.00 78 1015.4
20260902081000 58 63 3.0 7.0 0.00 0.00 0.00 78 1015.5
20260902080457 58 66 3.0 7.0 0.00 0.00 0.00 78 1015.5
20260902075957 58 32 1.0 4.0 0.00 0.00 0.00 78 1015.5
20260902075453 57 31 3.0 5.0 0.00 0.00 0.00 78 1015.4
20260902074948 58 45 6.0 6.0 0.00 0.00 0.00 78 1015.4
20260902074443 57 34 4.0 5.0 0.00 0.00 0.00 79 1015.4
20260902073938 57 34 1.0 1.0 0.00 0.00 0.00 80 1015.5
20260902073434 57 38 2.0 2.0 0.00 0.00 0.00 78 1015.5
20260902072930 58 52 2.0 4.0 0.00 0.00 0.00 77 1015.4
20260902072426 58 63 2.0 6.0 0.00 0.00 0.00 77 1015.2
20260902071922 58 54 3.0 5.0 0.00 0.00 0.00 78 1015.4
20260902071421 57 40 2.0 6.0 0.00 0.00 0.00 78 1015.2
20260902070918 57 73 2.0 2.0 0.00 0.00 0.00 78 1015.5
20260902070414 57 350 4.0 10.0 0.00 0.00 0.00 78 1015.4
20260902065912 58 54 4.0 5.0 0.00 0.00 0.00 77 1015.5
20260902065407 58 50 4.0 6.0 0.00 0.00 0.00 77 1015.5
20260902064903 58 60 6.0 8.0 0.00 0.00 0.00 77 1015.6
20260902064358 58 45 4.0 6.0 0.00 0.00 0.00 77 1015.6
20260902063854 58 49 4.0 6.0 0.00 0.00 0.00 76 1015.4
20260902063349 58 51 6.0 9.0 0.00 0.00 0.00 76 1015.5
20260902062849 58 68 4.0 5.0 0.00 0.00 0.00 76 1015.8
20260902062348 59 43 0.0 5.0 0.00 0.00 0.00 76 1015.2
20260902061848 59 57 2.0 3.0 0.00 0.00 0.00 75 1015.5
20260902061343 59 273 1.0 5.0 0.00 0.00 0.00 75 1015.5
20260902060839 59 95 4.0 6.0 0.00 0.00 0.00 74 1015.2
20260902060335 59 51 5.0 7.0 0.00 0.00 0.00 74 1015.4
20260902055830 60 59 3.0 5.0 0.00 0.15 0.15 73 1015.2
20260902055326 60 48 5.0 5.0 0.00 0.15 0.15 72 1015.4
20260902054821 60 50 5.0 6.0 0.00 0.15 0.15 74 1015.4
20260902054317 60 67 5.0 9.0 0.00 0.15 0.15 72 1015.4
20260902053812 60 63 6.0 8.0 0.00 0.15 0.15 72 1015.4
20260902053307 60 61 5.0 6.0 0.00 0.15 0.15 72 1015.5
20260902052806 60 73 7.0 10.0 0.00 0.15 0.15 72 1015.4
20260902052306 60 41 5.0 9.0 0.00 0.15 0.15 72 1015.6
20260902051801 61 51 5.0 8.0 0.00 0.15 0.15 71 1015.5
20260902051255 61 45 4.0 6.0 0.00 0.15 0.15 70 1015.6
20260902050751 61 64 5.0 6.0 0.00 0.15 0.15 70 1015.5
20260902050246 61 64 6.0 9.0 0.00 0.15 0.15 71 1015.5
20260902045745 61 57 3.0 6.0 0.00 0.15 0.15 71 1015.5
20260902045242 61 47 6.0 6.0 0.00 0.15 0.15 71 1015.5
20260902044737 61 58 4.0 9.0 0.00 0.15 0.15 71 1015.4
20260902044232 61 45 5.0 8.0 0.00 0.15 0.15 72 1015.4
20260902043727 62 93 3.0 5.0 0.00 0.15 0.15 71 1015.4
20260902043223 61 23 1.0 3.0 0.00 0.15 0.15 73 1015.4
20260902042722 62 36 2.0 3.0 0.00 0.15 0.15 72 1015.4
20260902042217 62 82 2.0 3.0 0.00 0.15 0.15 72 1015.5
20260902041712 62 40 2.0 5.0 0.00 0.15 0.15 72 1015.5
20260902041207 62 62 2.0 3.0 0.00 0.15 0.15 73 1015.0
20260902040706 61 15 1.0 2.0 0.00 0.15 0.15 73 1015.1
20260902040202 62 16 1.0 3.0 0.00 0.15 0.15 72 1015.2
20260902035700 62 25 2.0 3.0 0.00 0.15 0.15 72 1015.0
20260902035156 62 45 2.0 3.0 0.00 0.15 0.15 73 1015.1
20260902034655 62 24 2.0 4.0 0.00 0.15 0.15 74 1015.1
20260902034154 62 38 3.0 3.0 0.00 0.15 0.15 76 1015.1
20260902033653 62 76 1.0 2.0 0.00 0.15 0.15 76 1014.9
20260902033148 63 9 1.0 2.0 0.00 0.15 0.15 75 1014.9
20260902032647 63 25 2.0 2.0 0.00 0.15 0.15 74 1014.8
20260902032142 63 26 1.0 2.0 0.00 0.15 0.15 73 1014.9
20260902031641 63 30 2.0 2.0 0.00 0.15 0.15 71 1014.7
20260902031138 64 6 2.0 2.0 0.00 0.15 0.15 73 1014.5
20260902030633 64 8 2.0 2.0 0.00 0.15 0.15 72 1014.3
20260902030132 64 11 2.0 2.0 0.00 0.15 0.15 69 1014.3
20260902025632 65 356 2.0 2.0 0.00 0.15 0.15 68 1014.4
20260902025128 65 37 1.0 2.0 0.00 0.15 0.15 71 1014.4
20260902024623 66 53 0.0 2.0 0.00 0.15 0.15 68 1014.1
20260902024117 66 342 1.0 2.0 0.00 0.15 0.15 66 1014.2
20260902023613 67 352 0.0 2.0 0.00 0.15 0.15 64 1014.1
20260902023108 67 356 1.0 2.0 0.00 0.15 0.15 66 1013.8
20260902022608 68 331 1.0 1.0 0.00 0.15 0.15 65 1014.4
20260902022104 68 44 0.0 2.0 0.00 0.15 0.15 62 1014.1
20260902021559 68 334 1.0 2.0 0.00 0.15 0.15 62 1013.9
20260902021053 68 324 1.0 1.0 0.00 0.15 0.15 61 1013.9
20260902020549 69 345 0.0 1.0 0.00 0.15 0.15 56 1013.9
20260902020045 69 330 1.0 2.0 0.00 0.15 0.15 57 1013.9
20260902015541 69 321 2.0 2.0 0.00 0.15 0.15 57 1014.1
20260902015036 70 318 1.0 2.0 0.00 0.15 0.15 56 1014.2
20260902014532 70 339 0.0 2.0 0.00 0.15 0.15 54 1014.1
20260902014028 71 343 0.0 2.0 0.00 0.15 0.15 56 1014.3
20260902013522 71 337 2.0 2.0 0.00 0.15 0.15 51 1014.2
20260902013018 72 289 1.0 2.0 0.00 0.15 0.15 50 1014.4
20260902012513 73 350 1.0 3.0 0.00 0.15 0.15 50 1014.2
20260902012009 73 305 3.0 4.0 0.00 0.15 0.15 48 1014.4
20260902011504 73 274 1.0 3.0 0.00 0.15 0.15 48 1014.2
20260902011003 73 343 0.0 6.0 0.00 0.15 0.15 47 1014.3
20260902010458 73 289 1.0 4.0 0.00 0.15 0.15 48 1014.5
20260902005957 73 248 0.0 4.0 0.00 0.15 0.15 50 1014.2